QPF
0.00 0.00 0.00 0.00 0.00 0.00 0.00 0.00 0.00 0.00 0.00 0.00 0.00 0.00 0.00 0.00 0.01 0.01 0.01 0.02 0.00 0.00 0.00 0.00 0.00 0.00 0.00 0.00 0.00 0.01 0.01 0.01
0.02 0.01 0.02 0.01 0.00 0.00 0.00 0.00 0.01 0.00 0.00 0.00 0.01 0.03 0.01 0.00 0.00 0.00 0.00 0.00 0.00 0.00 0.00 0.00 0.00 0.00 0.00 0.00 0.00 0.01 0.01 0.01
0.02 0.01 0.07 0.02 0.01 0.00 0.00 0.00 0.01 0.04 0.04 0.06 0.07 0.02 0.00 0.00 0.00 0.00 0.00 0.00 0.00 0.00 0.00 0.00 0.00 0.00 0.00 0.00 0.00 0.00 0.00 0.00
0.02 0.02 0.01 0.01 0.02 0.01 0.01 0.03 0.09 0.18 0.16 0.11 0.04 0.00 0.00 0.00 0.00 0.00 0.00 0.00 0.00 0.00 0.00 0.00 0.00 0.00 0.00 0.00 0.00 0.00 0.00 0.00
0.00 0.00 0.00 0.00 0.00 0.00 0.00 0.03 0.07 0.06 0.04 0.01 0.00 0.00 0.00 0.00 0.00 0.00 0.00 0.00 0.00 0.00 0.00 0.00 0.00 0.00 0.00 0.00 0.00 0.00 0.00 0.00
0.00 0.00 0.10 0.08 0.01 0.03 0.04 0.01 0.00 0.00 0.00 0.00 0.00 0.01 0.01 0.00 0.00 0.00 0.00 0.00 0.00 0.00 0.00 0.00 0.00 0.00 0.00 0.00 0.00 0.00 0.00 0.00
0.00 0.00 0.13 0.22 0.10 0.07 0.03 0.02 0.01 0.01 0.00 0.00 0.00 0.00 0.00 0.00 0.00 0.00 0.00 0.00 0.00 0.00 0.00 0.00 0.00 0.00 0.00 0.00 0.00 0.00 0.00 0.00
0.00 0.01 0.09 0.12 0.09 0.06 0.04 0.03 0.00 0.00 0.00 0.00 0.00 0.00 0.00 0.00 0.00 0.00 0.00 0.00 0.00 0.00 0.00 0.00 0.00 0.00 0.00 0.00 0.00 0.00 0.00 0.00
0.01 0.00 0.00 0.00 0.00 0.00 0.00 0.00 0.00 0.00 0.00 0.00 0.00 0.00 0.00 0.00 0.00 0.00 0.00 0.00 0.00 0.00 0.00 0.00 0.00 0.00 0.00 0.00 0.00 0.00 0.00 0.00
0.00 0.00 0.00 0.00 0.00 0.00 0.00 0.00 0.00 0.00 0.00 0.00 0.00 0.00 0.00 0.00 0.00 0.00 0.00 0.00 0.00 0.00 0.00 0.00 0.00 0.00 0.00 0.00 0.00 0.00 0.00 0.00
0.00 0.00 0.00 0.00 0.00 0.00 0.00 0.00 0.00 0.00 0.00 0.00 0.00 0.00 0.00 0.00 0.00 0.00 0.00 0.00 0.00 0.00 0.00 0.00 0.00 0.00 0.00 0.00 0.00 0.00 0.00 0.00
0.00 0.00 0.00 0.00 0.00 0.00 0.00 0.00 0.00 0.00 0.00 0.00 0.00 0.00 0.00 0.00 0.00 0.00 0.00 0.00 0.00 0.00 0.00 0.00 0.00 0.00 0.00 0.00 0.00 0.00 0.00 0.00
0.00 0.00 0.00 0.00 0.00 0.00 0.00 0.00 0.00 0.00 0.00 0.00 0.00 0.00 0.00 0.00 0.00 0.00 0.00 0.00 0.00 0.00 0.00 0.00 0.00 0.00 0.00 0.00 0.00 0.00 0.00 0.00
0.00 0.00 0.00 0.00 0.00 0.00 0.00 0.00 0.00 0.00 0.00 0.00 0.00 0.00 0.00 0.00 0.00 0.00 0.00 0.00 0.00 0.00 0.00 0.00 0.00 0.00 0.00 0.00 0.00 0.00 0.00 0.00
0.00 0.00 0.00 0.00 0.00 0.00 0.00 0.00 0.00 0.00 0.00 0.00 0.00 0.00 0.00 0.00 0.00 0.00 0.00 0.00 0.00 0.00 0.00 0.00 0.00 0.00 0.00 0.00 0.00 0.00 0.00 0.00
0.00 0.00 0.00 0.00 0.00 0.00 0.00 0.00 0.00 0.00 0.00 0.00 0.00 0.00 0.00 0.00 0.00 0.00 0.00 0.00 0.00 0.00 0.00 0.00 0.00 0.00 0.00 0.00 0.00 0.00 0.00 0.00
0.00 0.00 0.00 0.00 0.00 0.00 0.00 0.00 0.00 0.00 0.00 0.00 0.00 0.00 0.00 0.00 0.00 0.00 0.00 0.00 0.00 0.00 0.00 0.00 0.00 0.00 0.00 0.00 0.00 0.00 0.00 0.00
0.00 0.00 0.00 0.00 0.00 0.00 0.00 0.00 0.00 0.00 0.00 0.00 0.00 0.00 0.00 0.00 0.00 0.00 0.00 0.00 0.00 0.00 0.00 0.00 0.00 0.00 0.00 0.00 0.00 0.00 0.00 0.00
0.00 0.00 0.00 0.00 0.00 0.00 0.00 0.00 0.00 0.00 0.00 0.00 0.00 0.00 0.00 0.00 0.00 0.00 0.00 0.00 0.00 0.00 0.00 0.00 0.00 0.00 0.00 0.00 0.00 0.00 0.00 0.00
0.00 0.00 0.00 0.00 0.00 0.00 0.00 0.00 0.00 0.00 0.00 0.00 0.00 0.00 0.00 0.00 0.00 0.00 0.00 0.00 0.00 0.00 0.00 0.00 0.00 0.00 0.00 0.00 0.00 0.00 0.00 0.00
MSLP
1018.70 1019.02 1019.96 1020.62 1020.76 1020.79 1020.85 1020.85 1021.07 1021.39 1021.62 1021.51 1021.49 1021.59 1021.39 1021.39 1021.49 1021.33 1021.19 1021.10 1020.89 1020.75 1020.76 1020.74 1020.54 1020.43 1020.41 1020.20 1020.05 1019.75 1019.05 1018.25
1018.83 1019.24 1020.00 1020.66 1020.93 1021.17 1021.31 1021.16 1021.17 1021.63 1022.02 1022.04 1021.68 1021.66 1021.80 1021.58 1021.50 1021.98 1021.92 1021.63 1021.44 1021.27 1020.99 1020.93 1020.80 1020.50 1020.42 1020.18 1020.10 1019.77 1018.82 1018.29
1019.67 1020.07 1020.96 1020.95 1021.51 1021.70 1021.68 1021.78 1021.34 1021.89 1022.33 1022.13 1022.02 1021.45 1021.69 1022.18 1022.39 1022.12 1022.07 1021.99 1021.55 1021.45 1021.15 1020.74 1020.65 1020.51 1020.17 1020.11 1019.99 1019.46 1019.47 1019.14
1020.82 1020.73 1021.06 1021.64 1021.30 1022.80 1022.39 1021.93 1021.94 1022.23 1022.79 1022.56 1022.56 1022.44 1022.39 1022.45 1022.55 1022.34 1021.93 1022.09 1021.71 1021.36 1021.27 1020.74 1020.30 1019.90 1019.78 1019.84 1019.68 1019.89 1019.67 1019.65
1021.51 1021.42 1021.74 1022.07 1022.23 1023.13 1022.78 1022.65 1022.59 1023.15 1023.63 1023.45 1023.32 1023.06 1022.85 1022.49 1022.38 1022.28 1021.97 1022.01 1021.88 1021.39 1021.28 1021.18 1021.17 1020.81 1020.56 1020.45 1020.16 1019.63 1019.19 1019.22
1022.76 1022.66 1022.77 1022.48 1022.65 1023.66 1023.77 1023.62 1023.26 1023.32 1023.82 1023.90 1024.02 1024.12 1023.81 1023.86 1023.82 1023.34 1022.91 1022.87 1022.65 1022.12 1021.85 1021.85 1021.63 1021.31 1021.17 1020.92 1020.54 1020.25 1019.81 1019.64
1023.55 1023.56 1023.65 1023.65 1023.74 1023.90 1024.04 1024.12 1023.98 1023.99 1024.20 1024.35 1024.17 1023.88 1023.97 1024.02 1023.82 1023.54 1023.26 1023.06 1022.72 1022.39 1022.16 1021.89 1021.63 1021.56 1021.36 1021.29 1020.83 1020.58 1020.45 1020.22
1023.75 1023.94 1023.98 1023.74 1024.07 1024.25 1024.09 1024.06 1024.09 1024.20 1024.41 1024.59 1024.62 1024.46 1024.25 1024.23 1024.07 1023.73 1023.50 1023.39 1023.08 1022.77 1022.43 1021.96 1021.63 1021.50 1021.13 1021.13 1021.05 1020.78 1020.67 1020.75
1023.01 1023.23 1023.55 1023.74 1023.79 1023.81 1023.80 1023.96 1024.19 1024.46 1024.72 1024.98 1025.10 1024.68 1024.51 1024.24 1024.31 1024.18 1024.01 1023.82 1023.37 1022.93 1022.78 1022.23 1021.88 1021.62 1021.28 1020.90 1020.70 1020.87 1021.00 1020.77
1022.76 1023.05 1023.54 1023.74 1024.02 1023.95 1024.15 1024.36 1024.55 1024.75 1024.98 1025.26 1025.30 1025.22 1024.94 1024.80 1024.77 1024.88 1024.63 1024.29 1024.04 1023.59 1023.25 1022.94 1022.60 1022.36 1021.87 1021.19 1020.97 1020.70 1021.11 1020.87
1023.00 1023.47 1023.92 1024.03 1024.66 1024.63 1024.85 1024.94 1024.96 1025.21 1025.35 1025.49 1025.76 1025.69 1025.49 1025.35 1025.62 1025.56 1025.09 1024.85 1024.78 1024.42 1023.96 1023.78 1023.20 1023.01 1022.23 1021.60 1021.32 1020.88 1021.02 1021.09
1023.42 1023.91 1024.17 1024.43 1024.80 1024.94 1025.20 1025.31 1025.45 1025.52 1025.76 1026.06 1026.09 1026.19 1026.02 1025.61 1025.74 1026.03 1025.36 1025.43 1025.33 1025.38 1024.96 1024.39 1023.74 1023.67 1022.94 1022.11 1021.33 1021.06 1021.03 1021.69
1023.57 1024.19 1024.36 1024.24 1024.30 1024.52 1024.87 1025.12 1025.44 1025.70 1026.20 1026.52 1026.57 1026.60 1026.44 1026.34 1026.06 1026.14 1025.91 1025.74 1026.11 1026.05 1025.80 1025.16 1024.33 1024.30 1023.58 1022.56 1021.09 1020.95 1021.26 1022.11
1023.69 1023.97 1023.96 1023.90 1024.07 1024.29 1024.57 1025.05 1025.56 1026.07 1026.63 1026.96 1027.03 1027.12 1027.11 1026.84 1026.98 1026.78 1026.81 1026.40 1026.68 1026.68 1026.57 1025.99 1025.40 1025.09 1024.74 1023.48 1022.49 1021.46 1022.32 1022.47
1023.29 1023.65 1023.81 1023.89 1024.23 1024.71 1025.22 1025.55 1025.46 1025.62 1026.18 1026.87 1027.47 1027.60 1027.71 1027.80 1027.76 1027.71 1027.53 1027.38 1027.36 1027.33 1027.25 1026.90 1026.34 1025.74 1025.68 1025.46 1024.56 1024.07 1024.05 1022.88
1022.89 1023.28 1023.67 1024.09 1024.14 1024.49 1024.57 1024.43 1024.97 1025.83 1026.31 1027.03 1027.58 1028.10 1028.26 1028.30 1028.27 1028.30 1028.25 1028.02 1028.10 1027.84 1027.76 1027.60 1027.11 1026.57 1026.38 1026.38 1026.40 1026.08 1025.26 1024.33
1022.72 1023.34 1023.59 1024.05 1024.08 1024.27 1024.51 1024.84 1025.60 1025.96 1026.53 1027.02 1027.56 1028.03 1028.62 1028.58 1028.65 1028.79 1028.78 1028.54 1028.52 1028.27 1028.15 1027.97 1027.70 1027.47 1027.21 1026.95 1026.73 1026.41 1026.17 1025.79
1023.01 1023.24 1023.67 1024.13 1024.43 1024.75 1024.90 1025.32 1025.62 1026.02 1026.57 1026.77 1027.28 1027.62 1028.22 1028.88 1028.88 1029.13 1029.10 1029.05 1028.89 1028.62 1028.48 1028.31 1028.32 1028.14 1028.00 1027.61 1027.25 1027.03 1026.67 1026.45
1022.95 1023.20 1023.79 1024.27 1024.57 1024.90 1025.40 1025.87 1026.26 1026.72 1026.98 1027.40 1027.66 1027.89 1028.45 1029.06 1029.26 1029.37 1029.30 1029.28 1029.13 1028.97 1028.66 1028.64 1028.65 1028.58 1028.45 1028.23 1027.95 1027.54 1027.27 1026.99
1022.54 1022.98 1023.56 1024.33 1024.91 1025.33 1025.80 1026.31 1026.60 1027.09 1027.69 1027.79 1028.13 1028.41 1028.95 1029.39 1029.53 1029.54 1029.58 1029.47 1029.33 1029.19 1028.66 1028.85 1028.98 1028.85 1028.70 1028.64 1028.50 1028.05 1027.78 1027.59
Thickness
5693 5689 5683 5677 5675 5672 5670 5668 5664 5660 5657 5658 5660 5659 5662 5662 5660 5661 5663 5662 5663 5663 5663 5662 5663 5664 5663 5664 5663 5665 5667 5672
5690 5683 5677 5672 5671 5667 5664 5663 5660 5654 5649 5650 5655 5656 5654 5656 5657 5652 5651 5654 5654 5654 5655 5655 5656 5657 5656 5657 5656 5656 5661 5665
5684 5678 5668 5668 5662 5658 5658 5654 5656 5649 5643 5645 5647 5652 5651 5647 5646 5647 5646 5645 5647 5646 5649 5651 5651 5650 5650 5649 5648 5650 5649 5650
5673 5673 5669 5661 5660 5648 5651 5652 5652 5647 5641 5641 5641 5643 5642 5641 5639 5639 5640 5637 5638 5639 5638 5642 5645 5646 5647 5646 5644 5641 5642 5640
5665 5665 5662 5657 5653 5645 5646 5647 5645 5639 5634 5634 5634 5635 5636 5636 5635 5634 5635 5632 5631 5633 5632 5634 5633 5635 5635 5635 5635 5637 5639 5636
5655 5654 5652 5652 5648 5640 5637 5637 5638 5636 5631 5629 5626 5625 5626 5624 5621 5623 5625 5623 5622 5625 5626 5625 5625 5626 5625 5625 5627 5626 5628 5626
5649 5648 5644 5641 5638 5635 5632 5630 5631 5629 5625 5623 5622 5622 5619 5617 5617 5617 5618 5617 5618 5618 5618 5618 5619 5616 5617 5615 5617 5616 5616 5615
5642 5640 5637 5636 5632 5629 5629 5626 5626 5624 5620 5617 5614 5613 5614 5612 5611 5612 5611 5608 5608 5608 5608 5609 5610 5609 5610 5607 5605 5606 5607 5603
5646 5641 5635 5632 5628 5626 5625 5623 5620 5617 5614 5610 5607 5608 5608 5607 5604 5602 5600 5599 5599 5602 5600 5601 5601 5600 5600 5600 5599 5595 5592 5593
5642 5638 5631 5627 5622 5621 5619 5617 5615 5612 5609 5606 5603 5601 5601 5599 5596 5592 5591 5591 5590 5591 5590 5589 5588 5586 5586 5588 5587 5587 5583 5583
5637 5631 5625 5620 5614 5614 5611 5611 5610 5607 5604 5600 5596 5594 5592 5590 5584 5581 5582 5581 5579 5578 5578 5574 5574 5572 5575 5578 5578 5579 5576 5573
5631 5625 5621 5615 5611 5609 5607 5606 5603 5600 5596 5592 5589 5586 5583 5583 5578 5573 5574 5569 5566 5562 5561 5562 5564 5562 5565 5568 5572 5571 5569 5563
5628 5620 5618 5617 5615 5612 5608 5604 5600 5595 5589 5585 5581 5578 5575 5572 5570 5566 5564 5561 5554 5551 5549 5551 5554 5551 5554 5558 5569 5568 5563 5552
5624 5620 5619 5618 5615 5612 5608 5603 5596 5589 5583 5577 5573 5569 5564 5562 5557 5554 5550 5549 5544 5540 5537 5537 5539 5539 5538 5546 5549 5555 5549 5545
5625 5620 5618 5616 5611 5605 5598 5594 5592 5588 5581 5572 5564 5559 5555 5550 5545 5542 5539 5536 5532 5529 5525 5524 5524 5527 5524 5524 5528 5529 5527 5536
5625 5621 5616 5611 5607 5602 5600 5600 5592 5582 5574 5565 5557 5550 5545 5540 5536 5531 5527 5524 5519 5517 5514 5512 5512 5513 5512 5509 5507 5507 5510 5517
5623 5616 5613 5607 5605 5602 5597 5591 5582 5576 5568 5560 5552 5544 5535 5531 5525 5520 5516 5512 5508 5506 5503 5499 5498 5496 5496 5496 5496 5496 5495 5495
5616 5613 5607 5602 5598 5593 5590 5583 5577 5570 5562 5557 5548 5540 5531 5522 5517 5510 5505 5501 5497 5495 5491 5488 5484 5482 5480 5481 5482 5481 5481 5480
5611 5608 5601 5597 5592 5587 5580 5573 5566 5558 5552 5544 5538 5532 5523 5513 5507 5501 5496 5491 5487 5484 5481 5478 5474 5471 5468 5467 5466 5466 5466 5465
5610 5605 5599 5591 5584 5578 5571 5563 5558 5550 5540 5535 5527 5520 5511 5503 5497 5491 5486 5482 5479 5475 5474 5468 5464 5461 5458 5454 5451 5451 5450 5448